[[{"header":{"parameterUnit":"m.s-1","parameterCategory":1,"la1":30.2992,"la2":30.254,"lo1":-89.0895,"lo2":-89.0443,"dy":0.0025,"dx":0.0025,"nx":19,"ny":19,"refTime":"2026-05-16T03:00:00:Z","depth":0,"parameterNumber":2,"parameterNumberName":"U-component_of_WINDS"},"data":[0,0,0,-1.2707,-1.2706,-1.2648,-1.2648,-1.2583,-1.2582,0,0,0,0,0,0,0,0,0,0,0,-1.273,-1.2729,-1.2707,-1.2706,-1.2648,-1.2648,-1.2583,-1.2582,0,0,0,0,0,0,0,0,0,0,0,-1.273,-1.273,-1.2729,-1.2706,-1.2648,-1.2648,-1.2583,-1.2623,0,0,0,0,0,0,0,0,0,0,-1.2678,-1.2704,-1.273,-1.2729,-1.2705,-1.2649,-1.2648,-1.2625,-1.2621,-1.2613,0,-1.2607,0,-1.2594,-1.2578,-1.2578,0,0,0,-1.2702,-1.2708,-1.2687,-1.2729,-1.2705,-1.2649,-1.2673,-1.2623,-1.2618,-1.2607,-1.2606,-1.2604,-1.2593,-1.2578,-1.2578,-1.2547,-1.2547,0,0,-1.2705,-1.2722,-1.2691,-1.2685,-1.2695,-1.2675,-1.2671,-1.2619,-1.262,-1.2606,-1.2602,-1.2592,-1.2578,-1.2577,-1.2547,-1.2547,0,0,0,-1.2717,-1.2724,-1.2705,-1.2687,-1.2677,-1.2673,-1.2669,-1.2622,-1.2614,-1.2601,-1.2591,-1.2577,-1.2577,-1.2547,-1.2547,-1.2568,0,0,0,-1.2719,-1.2732,-1.2707,-1.2717,-1.2678,-1.2649,-1.2673,-1.2618,-1.2611,-1.2591,-1.2577,-1.2576,-1.2547,-1.2547,-1.2567,-1.2574,0,0,0,-1.2732,-1.2733,-1.2727,-1.2718,-1.2694,-1.2649,-1.2638,-1.2616,-1.2605,-1.2578,-1.2576,-1.2547,-1.2547,-1.2566,-1.2573,-1.2571,0,0,0,-1.275,-1.2745,-1.2727,-1.2717,-1.2694,-1.2663,-1.2638,-1.2613,-1.2592,-1.2577,-1.2547,-1.2547,-1.2566,-1.2572,-1.2571,-1.2573,-1.2576,0,0,-1.2753,-1.2746,-1.2738,-1.2721,-1.2697,-1.267,-1.2648,-1.2612,-1.2593,-1.2564,-1.2563,-1.2567,-1.2573,-1.2571,-1.2585,-1.2588,0,0,0,-1.2745,-1.274,-1.273,-1.2711,-1.2685,-1.2662,-1.2628,-1.2615,-1.2589,-1.2582,-1.2566,-1.2569,-1.2567,-1.2567,-1.2569,-1.2567,-1.2548,-1.2548,-1.2548,-1.2773,-1.275,-1.2737,-1.2708,-1.269,-1.2656,-1.2639,-1.2616,-1.2597,-1.2594,-1.2584,-1.2596,-1.2597,-1.2598,-1.2596,-1.2584,-1.2584,-1.2584,-1.2584,-1.2774,-1.2764,-1.2741,-1.272,-1.2696,-1.2677,-1.2644,-1.2632,-1.2611,-1.2601,-1.2598,-1.2588,-1.2601,-1.2598,-1.2586,-1.2585,-1.2585,-1.2585,-1.2585,-1.279,-1.2781,-1.2766,-1.2738,-1.2719,-1.2689,-1.2671,-1.265,-1.2629,-1.2627,-1.2615,-1.2614,-1.2611,-1.2623,-1.2623,-1.2623,-1.2623,-1.2623,-1.2623,-1.2811,-1.2794,-1.2781,-1.2754,-1.274,-1.2719,-1.2685,-1.267,-1.2649,-1.2635,-1.2634,-1.2616,-1.2607,-1.2605,-1.2623,-1.2623,-1.2623,-1.2623,-1.2623,-1.282,-1.2815,-1.2796,-1.2782,-1.2749,-1.2731,-1.2705,-1.2678,-1.2662,-1.2654,-1.2637,-1.2634,-1.2625,-1.2623,-1.2621,-1.2642,-1.2642,-1.2642,-1.2642,-1.2833,-1.2827,-1.2803,-1.2782,-1.276,-1.2735,-1.2714,-1.2688,-1.266,-1.265,-1.2644,-1.264,-1.2639,-1.263,-1.2628,-1.2626,-1.2648,-1.2648,-1.2648,-1.2838,-1.2828,-1.2815,-1.2789,-1.2761,-1.2738,-1.2718,-1.2695,-1.2662,-1.2648,-1.2641,-1.2641,-1.2634,-1.2633,-1.2617,-1.2615,-1.261,0,0]},{"header":{"parameterUnit":"m.s-1","parameterCategory":1,"la1":30.2992,"la2":30.254,"lo1":-89.0895,"lo2":-89.0443,"dy":0.0025,"dx":0.0025,"nx":19,"ny":19,"refTime":"2026-05-16T03:00:00:Z","depth":0,"parameterNumber":3,"parameterNumberName":"V-component_of_WINDS"},"data":[0,0,0,4.5078,4.5077,4.5024,4.5024,4.4956,4.4955,0,0,0,0,0,0,0,0,0,0,0,4.5096,4.5096,4.5078,4.5076,4.5024,4.5024,4.4956,4.4955,0,0,0,0,0,0,0,0,0,0,0,4.5096,4.5096,4.5095,4.5076,4.5024,4.5024,4.4956,4.4995,0,0,0,0,0,0,0,0,0,0,4.5046,4.5066,4.5096,4.5095,4.5076,4.5024,4.5024,4.4997,4.4993,4.4981,0,4.4973,0,4.4963,4.4951,4.4951,0,0,0,4.5073,4.507,4.5054,4.5095,4.5076,4.5024,4.5047,4.4995,4.499,4.4975,4.4972,4.4969,4.4962,4.4951,4.495,4.4897,4.4897,0,0,4.5076,4.5087,4.5057,4.5051,4.5062,4.5048,4.5045,4.4992,4.4988,4.4972,4.4968,4.4961,4.495,4.495,4.4897,4.4897,0,0,0,4.5087,4.5089,4.5074,4.5054,4.5045,4.5047,4.5043,4.499,4.4985,4.4967,4.496,4.495,4.4949,4.4897,4.4897,4.4904,0,0,0,4.5088,4.5095,4.5076,4.5081,4.5046,4.5017,4.5043,4.4989,4.4982,4.4961,4.495,4.4948,4.4898,4.4897,4.4904,4.4904,0,0,0,4.5098,4.5096,4.509,4.5082,4.506,4.5018,4.5009,4.4987,4.4978,4.4951,4.4948,4.4898,4.4897,4.4904,4.4904,4.4894,0,0,0,4.5111,4.5094,4.509,4.5069,4.5061,4.5024,4.501,4.498,4.4957,4.4949,4.4898,4.4897,4.4904,4.4904,4.4894,4.4887,4.4886,0,0,4.5096,4.5093,4.5079,4.5074,4.5041,4.5031,4.4997,4.4964,4.495,4.4915,4.4913,4.4904,4.4904,4.4894,4.4873,4.4872,0,0,0,4.5078,4.5069,4.5057,4.5038,4.5015,4.4995,4.4967,4.4955,4.4925,4.4935,4.4897,4.4897,4.489,4.4886,4.4885,4.4879,4.4896,4.4896,4.4896,4.507,4.5056,4.5033,4.5013,4.4994,4.4967,4.4949,4.4928,4.4916,4.4908,4.4897,4.4887,4.4883,4.4882,4.4876,4.4893,4.4893,4.4893,4.4893,4.5046,4.5031,4.5019,4.4993,4.4977,4.4954,4.4926,4.4919,4.4894,4.4893,4.4887,4.4887,4.4881,4.4875,4.4893,4.4893,4.4893,4.4893,4.4893,4.504,4.503,4.5018,4.499,4.4968,4.4947,4.4925,4.491,4.4896,4.4889,4.4877,4.4876,4.4874,4.4885,4.4885,4.4885,4.4884,4.4884,4.4884,4.5037,4.5024,4.5008,4.4984,4.497,4.495,4.4923,4.4907,4.4887,4.4878,4.4878,4.4867,4.4884,4.4889,4.4884,4.4884,4.4884,4.4884,4.4884,4.5018,4.5021,4.4996,4.4983,4.4953,4.4933,4.4916,4.4887,4.4872,4.4861,4.4853,4.4868,4.4863,4.4863,4.4867,4.4856,4.4856,4.4856,4.4856,4.5012,4.501,4.4982,4.4962,4.494,4.4922,4.4893,4.4871,4.4849,4.4838,4.4838,4.4841,4.4843,4.4837,4.4838,4.4841,4.4824,4.4824,4.4824,4.5,4.4994,4.4973,4.4955,4.4931,4.491,4.4882,4.4857,4.4831,4.4823,4.483,4.4831,4.4837,4.484,4.4831,4.4833,4.4838,0,0]}]]